TimeCST,TemperatureF,Dew PointF,Humidity,Sea Level PressureIn,VisibilityMPH,Wind Direction,Wind SpeedMPH,Gust SpeedMPH,PrecipitationIn,Events,Conditions,WindDirDegrees,DateUTC
12:07 AM,17.6,14.0,86,30.07,10.0,Calm,Calm,-,N/A,,Overcast,0,2012-12-14 06:07:00
12:28 AM,17.6,14.0,86,30.07,10.0,Calm,Calm,-,N/A,,Overcast,0,2012-12-14 06:28:00
12:47 AM,17.6,15.8,93,30.07,10.0,Calm,Calm,-,N/A,,Overcast,0,2012-12-14 06:47:00
1:07 AM,19.4,15.8,86,30.07,10.0,Calm,Calm,-,N/A,,Overcast,0,2012-12-14 07:07:00
1:28 AM,19.4,15.8,86,30.07,10.0,Calm,Calm,-,N/A,,Overcast,0,2012-12-14 07:28:00
1:47 AM,19.4,15.8,86,30.07,4.0,Calm,Calm,-,N/A,Snow,Light Snow,0,2012-12-14 07:47:00
2:07 AM,19.4,17.6,93,30.07,10.0,Calm,Calm,-,N/A,,Overcast,0,2012-12-14 08:07:00
2:28 AM,19.4,15.8,86,30.07,10.0,Calm,Calm,-,N/A,,Overcast,0,2012-12-14 08:28:00
2:47 AM,19.4,17.6,93,30.08,10.0,Calm,Calm,-,N/A,,Overcast,0,2012-12-14 08:47:00
3:08 AM,19.4,17.6,93,30.07,2.5,Calm,Calm,-,N/A,,Overcast,0,2012-12-14 09:08:00
3:28 AM,19.4,17.6,93,30.07,1.0,SE,3.5,-,N/A,,Overcast,130,2012-12-14 09:28:00
3:47 AM,19.4,17.6,93,30.06,0.8,SE,3.5,-,N/A,,Overcast,130,2012-12-14 09:47:00
4:08 AM,19.4,17.6,93,30.06,0.5,ESE,5.8,-,N/A,Fog,Light Freezing Fog,110,2012-12-14 10:08:00
4:28 AM,17.6,15.8,93,30.06,1.5,Calm,Calm,-,N/A,,Overcast,0,2012-12-14 10:28:00
5:08 AM,14.0,12.2,93,30.05,10.0,Calm,Calm,-,N/A,,Scattered Clouds,0,2012-12-14 11:08:00
5:27 AM,12.2,12.2,100,30.04,10.0,East,3.5,-,N/A,,Clear,100,2012-12-14 11:27:00
5:47 AM,12.2,10.4,92,30.04,10.0,East,3.5,-,N/A,,Clear,90,2012-12-14 11:47:00
6:08 AM,10.4,10.4,100,30.04,10.0,East,3.5,-,N/A,,Clear,100,2012-12-14 12:08:00
6:28 AM,10.4,8.6,92,30.04,10.0,Calm,Calm,-,N/A,,Clear,0,2012-12-14 12:28:00
6:47 AM,10.4,8.6,92,30.04,10.0,ESE,4.6,-,N/A,,Clear,110,2012-12-14 12:47:00
7:08 AM,10.4,8.6,92,30.03,10.0,ESE,4.6,-,N/A,,Clear,110,2012-12-14 13:08:00
7:28 AM,8.6,6.8,92,30.04,10.0,Calm,Calm,-,N/A,,Clear,0,2012-12-14 13:28:00
7:47 AM,6.8,5.0,92,30.03,10.0,East,3.5,-,N/A,,Clear,80,2012-12-14 13:47:00
8:08 AM,8.6,6.8,92,30.02,10.0,East,4.6,-,N/A,,Clear,90,2012-12-14 14:08:00
8:27 AM,10.4,8.6,92,30.02,10.0,Calm,Calm,-,N/A,,Clear,0,2012-12-14 14:27:00
8:47 AM,12.2,10.4,92,30.02,10.0,East,3.5,-,N/A,,Clear,100,2012-12-14 14:47:00
9:08 AM,14.0,12.2,93,30.02,10.0,ESE,3.5,-,N/A,,Clear,110,2012-12-14 15:08:00
9:27 AM,15.8,15.8,100,30.02,10.0,ESE,3.5,-,N/A,,Clear,120,2012-12-14 15:27:00
9:47 AM,19.4,17.6,93,30.02,10.0,ESE,4.6,-,N/A,,Clear,120,2012-12-14 15:47:00
10:08 AM,21.2,19.4,93,30.02,10.0,ESE,5.8,-,N/A,,Clear,120,2012-12-14 16:08:00
10:27 AM,23.0,19.4,86,30.02,10.0,SE,5.8,-,N/A,,Clear,130,2012-12-14 16:27:00
10:47 AM,24.8,21.2,86,30.01,10.0,SE,5.8,-,N/A,,Clear,130,2012-12-14 16:47:00
11:08 AM,28.4,19.4,69,30.00,10.0,ESE,9.2,-,N/A,,Clear,120,2012-12-14 17:08:00
11:27 AM,30.2,19.4,64,30.00,10.0,SE,8.1,-,N/A,,Clear,130,2012-12-14 17:27:00
11:47 AM,30.2,19.4,64,29.98,10.0,ESE,6.9,-,N/A,,Clear,120,2012-12-14 17:47:00
12:08 PM,32.0,19.4,60,29.97,10.0,SE,11.5,16.1,N/A,,Clear,130,2012-12-14 18:08:00
12:27 PM,33.8,21.2,60,29.96,10.0,ESE,9.2,-,N/A,,Clear,120,2012-12-14 18:27:00
12:47 PM,33.8,19.4,56,29.94,10.0,SE,8.1,16.1,N/A,,Clear,130,2012-12-14 18:47:00
1:08 PM,33.8,19.4,56,29.92,10.0,ESE,10.4,-,N/A,,Clear,120,2012-12-14 19:08:00
1:27 PM,33.8,21.2,60,29.91,10.0,SE,10.4,-,N/A,,Clear,130,2012-12-14 19:27:00
1:47 PM,33.8,21.2,60,29.90,10.0,ESE,11.5,-,N/A,,Clear,110,2012-12-14 19:47:00
2:08 PM,33.8,21.2,60,29.90,10.0,SE,10.4,16.1,N/A,,Clear,130,2012-12-14 20:08:00
2:27 PM,33.8,21.2,60,29.89,10.0,ESE,6.9,-,N/A,,Clear,120,2012-12-14 20:27:00
2:48 PM,32.0,21.2,64,29.89,10.0,SSE,4.6,-,N/A,,Clear,150,2012-12-14 20:48:00
3:08 PM,32.0,21.2,64,29.89,10.0,SE,9.2,18.4,N/A,,Clear,130,2012-12-14 21:08:00
3:27 PM,30.2,21.2,69,29.89,10.0,SE,6.9,16.1,N/A,,Clear,130,2012-12-14 21:27:00
3:47 PM,30.2,21.2,69,29.89,10.0,ESE,8.1,-,N/A,,Clear,120,2012-12-14 21:47:00
4:08 PM,28.4,21.2,74,29.88,10.0,ESE,11.5,16.1,N/A,,Clear,120,2012-12-14 22:08:00
4:27 PM,28.4,21.2,74,29.88,10.0,ESE,10.4,-,N/A,,Clear,110,2012-12-14 22:27:00
4:48 PM,26.6,21.2,80,29.88,10.0,ESE,11.5,17.3,N/A,,Clear,120,2012-12-14 22:48:00
5:07 PM,26.6,21.2,80,29.87,10.0,ESE,8.1,16.1,N/A,,Clear,110,2012-12-14 23:07:00
5:27 PM,26.6,21.2,80,29.87,10.0,ESE,8.1,-,N/A,,Clear,110,2012-12-14 23:27:00
5:48 PM,26.6,21.2,80,29.86,10.0,ESE,5.8,-,N/A,,Clear,110,2012-12-14 23:48:00
6:07 PM,26.6,21.2,80,29.86,10.0,ESE,8.1,-,N/A,,Clear,110,2012-12-15 00:07:00
6:27 PM,24.8,21.2,86,29.86,10.0,ESE,6.9,-,N/A,,Clear,110,2012-12-15 00:27:00
6:48 PM,24.8,21.2,86,29.86,10.0,ESE,6.9,-,N/A,,Clear,110,2012-12-15 00:48:00
7:08 PM,24.8,21.2,86,29.85,10.0,ESE,5.8,-,N/A,,Clear,120,2012-12-15 01:08:00
7:48 PM,24.8,21.2,86,29.85,10.0,ESE,8.1,-,N/A,,Clear,110,2012-12-15 01:48:00
8:07 PM,24.8,21.2,86,29.85,10.0,ESE,6.9,-,N/A,,Clear,120,2012-12-15 02:07:00
8:27 PM,24.8,21.2,86,29.85,10.0,ESE,5.8,-,N/A,,Clear,110,2012-12-15 02:27:00
8:48 PM,23.0,19.4,86,29.84,10.0,East,4.6,-,N/A,,Clear,90,2012-12-15 02:48:00
9:07 PM,21.2,19.4,93,29.84,10.0,East,4.6,-,N/A,,Clear,100,2012-12-15 03:07:00
9:27 PM,23.0,21.2,93,29.84,10.0,ESE,6.9,-,N/A,,Clear,120,2012-12-15 03:27:00
9:48 PM,24.8,23.0,93,29.83,10.0,SE,10.4,-,N/A,,Clear,130,2012-12-15 03:48:00
10:07 PM,26.6,24.8,93,29.81,10.0,SE,11.5,16.1,N/A,,Clear,130,2012-12-15 04:07:00
10:27 PM,26.6,24.8,93,29.81,10.0,SE,10.4,17.3,N/A,,Clear,130,2012-12-15 04:27:00
10:48 PM,26.6,24.8,93,29.80,10.0,ESE,11.5,18.4,N/A,,Clear,120,2012-12-15 04:48:00
11:07 PM,26.6,24.8,93,29.79,10.0,ESE,12.7,18.4,N/A,,Clear,120,2012-12-15 05:07:00
11:27 PM,26.6,24.8,93,29.79,10.0,ESE,11.5,18.4,N/A,,Clear,120,2012-12-15 05:27:00
11:48 PM,26.6,24.8,93,29.79,10.0,SE,12.7,17.3,N/A,,Clear,130,2012-12-15 05:48:00